Location: Burzi?i
(45.0869°N, 16.0577°E)
Time: 04:23:19
(UTC+00:00)

Lacrosse 5 - Pass Details

Date: 29 October 2020
Orbit: 714 x 725 km, 57.0° (Epoch: 30 November)

Event Time Altitude Azimuth Distance (km) Brightness Sun altitude
Rises 18:14:08 0° 309° (NW) 3,120 6.0 -26.4°
Reaches altitude 10° 18:16:46 10° 320° (NW) 2,199 4.9 -26.8°
Enters shadow 18:20:14 28° 0° (N) 1,323 3.2 -27.4°
